Home > Time Zones > World Clock > Weather > Cuba > Havana > Past weeks

Flag for Cuba Weather past 2 weeks in Havana, Cuba

Now
82 °F

Scattered clouds.


Feels Like: 84 °F
Forecast: N/A
Wind: 16 mph from Northeast

Location: Aeropuerto Jose Marti - Rancho-Boyeros - Habana

Current Time: Mar 6, 2015 at 3:42:09 PM

Latest Report: Mar 6, 2015 at 2:55 PM


Visibility: 6 mi

Pressure: 30.09 "Hg

Humidity: 55%

Dew point: 64 °F

Location of HavanaLocation

Historic Weather in Havana — Graph

°F

Havana temperature yesterday

Maximum temperature yesterday: 90 °F (at 1:55 PM)
Minimum temperature yesterday: 64 °F (at 5:55 AM)
Average temperature yesterday: 75 °F

Past Weeks' High & Low Weather Summary

 TemperatureHumidityPressure
High90 °F (Mar 5, 1:55 PM)94% (Feb 23, 3:55 AM)30.30 "Hg (Feb 23, 3:55 AM)
Low57 °F (Feb 20, 5:55 AM)32% (Feb 20, 12:55 PM)29.86 "Hg (Feb 26, 3:55 AM)
Average73 °F70%30.11 "Hg
* Reported Feb 19 1:55 PM — Mar 6 1:55 PM, Havana, Weather by CustomWeather, © 2015

Note: Actual official high and low records may vary slightly from our data, if they occured in-between our weather recording intervals... More about our weather records

Advertising

Havana weather history for previous 24 hours

 ConditionsComfort  
Time TempWeatherWind HumidityBarometerVisibility
1:55 PM
Fri, Mar 6
84 °FScattered clouds.15 mph55%30.12 "Hg6 mi
12:55 PM84 °FScattered clouds.14 mph48%30.15 "Hg6 mi
11:55 AM84 °FScattered clouds.13 mph48%30.15 "Hg6 mi
10:55 AM82 °FScattered clouds.9 mph51%30.18 "Hg6 mi
9:55 AM79 °FScattered clouds.12 mph65%30.18 "Hg6 mi
7:55 AM66 °FPassing clouds.1 mph94%30.15 "Hg5 mi
6:55 AM66 °FLight fog.3 mph94%30.15 "Hg3 mi
5:55 AM68 °FMild.2 mph88%30.12 "Hg2 mi
4:55 AM68 °FFog.5 mph88%30.09 "Hg3 mi
3:55 AM66 °FClear.3 mph94%30.09 "Hg2 mi
2:55 AM66 °FMild.No wind88%30.09 "Hg2 mi
2:07 AM66 °FMild.1 mph88%30.12 "Hg2 mi
1:55 AM68 °FClear.2 mph88%30.12 "Hg3 mi
12:55 AM72 °FClear.2 mph83%30.12 "Hg6 mi
11:55 PM
Thu, Mar 5
72 °FClear.5 mph88%30.15 "Hg6 mi
10:55 PM73 °FPassing clouds.8 mph83%30.15 "Hg6 mi
9:55 PM73 °FPassing clouds.6 mph83%30.15 "Hg6 mi
8:55 PM73 °FPassing clouds.8 mph83%30.12 "Hg6 mi
7:55 PM75 °FPassing clouds.6 mph78%30.12 "Hg6 mi
6:55 PM75 °FPassing clouds.8 mph78%30.09 "Hg6 mi
5:55 PM81 °FPartly sunny.6 mph70%30.07 "Hg6 mi
4:55 PM77 °FPartly sunny.6 mph74%30.07 "Hg5 mi
4:02 PM75 °FMild.5 mph78%30.07 "Hg2 mi
Weather by CustomWeather, © 2015

See weather overviewHow to use our weather pages